FDX2319 KLAX-KSFO

Flight info

Callsign FDX2319
Flight time 0h 53m
Altitude 40000
Route SUMMR2 STOKD SERFR SERFR4
Aircraft MD11/H-SDE1E2E3FGHIJ2J3J4J5M1RWXY/LB1D1

Departure

Time 2026-04-22 01:21
Airport Los Angeles International Airport (KLAX)

Arrival

Time 2026-04-22 02:14
Airport San Francisco International Airport (KSFO)
Time Latitude Longitude Altitude Speed Heading
2026-04-22 00:41 33.93414 -118.38706 133 ft 0 kts 173°
2026-04-22 01:03 33.93420 -118.38707 124 ft 2 kts 173°
2026-04-22 01:03 33.93440 -118.38710 131 ft 3 kts 176°
2026-04-22 01:03 33.93454 -118.38711 133 ft 3 kts 211°
2026-04-22 01:04 33.93469 -118.38698 133 ft 3 kts 218°
2026-04-22 01:04 33.93486 -118.38682 129 ft 2 kts 218°
2026-04-22 01:04 33.93487 -118.38681 130 ft 0 kts 218°
2026-04-22 01:16 33.93485 -118.38685 131 ft 1 kts 233°
2026-04-22 01:16 33.93482 -118.38707 133 ft 7 kts 259°
2026-04-22 01:16 33.93483 -118.38774 133 ft 6 kts 294°
2026-04-22 01:17 33.93524 -118.38795 127 ft 8 kts 360°
2026-04-22 01:17 33.93565 -118.38743 125 ft 10 kts 73°
2026-04-22 01:17 33.93576 -118.38640 126 ft 14 kts 83°
2026-04-22 01:17 33.93587 -118.38524 133 ft 13 kts 83°
2026-04-22 01:18 33.93598 -118.38428 130 ft 10 kts 83°
2026-04-22 01:18 33.93606 -118.38345 131 ft 10 kts 83°
2026-04-22 01:18 33.93619 -118.38294 128 ft 3 kts 53°
2026-04-22 01:18 33.93624 -118.38289 131 ft 0 kts 42°
2026-04-22 01:19 33.93663 -118.38277 130 ft 11 kts
2026-04-22 01:20 33.93728 -118.38297 125 ft 6 kts 322°
2026-04-22 01:20 33.93733 -118.38330 124 ft 5 kts 262°
2026-04-22 01:20 33.93725 -118.38403 125 ft 15 kts 262°
2026-04-22 01:20 33.93690 -118.38748 133 ft 85 kts 263°
2026-04-22 01:21 33.93581 -118.39818 172 ft 162 kts 262°
2026-04-22 01:21 33.93447 -118.41138 1201 ft 157 kts 264°
2026-04-22 01:21 33.93313 -118.42442 2257 ft 162 kts 265°
2026-04-22 01:21 33.93171 -118.43769 2543 ft 160 kts 263°
2026-04-22 01:22 33.93044 -118.45122 2874 ft 173 kts 266°
2026-04-22 01:22 33.92989 -118.46527 2989 ft 173 kts 268°
2026-04-22 01:22 33.92928 -118.48116 3587 ft 198 kts 267°
2026-04-22 01:22 33.92849 -118.49876 4154 ft 226 kts 265°
2026-04-22 01:23 33.92707 -118.51828 5089 ft 236 kts 264°
2026-04-22 01:23 33.92536 -118.53889 6037 ft 251 kts 263°
2026-04-22 01:23 33.92345 -118.55959 7394 ft 248 kts 262°
2026-04-22 01:23 33.92164 -118.58047 8491 ft 253 kts 262°
2026-04-22 01:24 33.91982 -118.60182 9578 ft 259 kts 262°
2026-04-22 01:24 33.91807 -118.62378 10354 ft 277 kts 263°
2026-04-22 01:24 33.91728 -118.64841 10592 ft 311 kts 266°
2026-04-22 01:24 33.91705 -118.67519 11138 ft 326 kts 267°
2026-04-22 01:25 33.91696 -118.70248 11509 ft 327 kts 267°
2026-04-22 01:25 33.91690 -118.72993 11799 ft 328 kts 267°
2026-04-22 01:25 33.91688 -118.75746 11934 ft 329 kts 267°
2026-04-22 01:25 33.91682 -118.78497 11979 ft 328 kts 267°
2026-04-22 01:26 33.91669 -118.81254 11934 ft 330 kts 267°
2026-04-22 01:26 33.91695 -118.84007 11955 ft 328 kts 269°
2026-04-22 01:26 33.91754 -118.86808 12460 ft 340 kts 268°
2026-04-22 01:26 33.91821 -118.89605 13856 ft 331 kts 269°
2026-04-22 01:27 33.91908 -118.92367 14922 ft 330 kts 269°
2026-04-22 01:27 33.91985 -118.95128 15889 ft 330 kts 269°
2026-04-22 01:27 33.92074 -118.97924 16612 ft 339 kts 270°
2026-04-22 01:27 33.92290 -119.00765 17438 ft 343 kts 278°
2026-04-22 01:28 33.93093 -119.03507 18253 ft 353 kts 290°
2026-04-22 01:28 33.94278 -119.06125 18992 ft 359 kts 295°
2026-04-22 01:28 33.95605 -119.08699 19611 ft 366 kts 296°
2026-04-22 01:28 33.96987 -119.11309 20115 ft 373 kts 296°
2026-04-22 01:29 33.98387 -119.13958 20828 ft 374 kts 296°
2026-04-22 01:29 33.99793 -119.16589 21608 ft 375 kts 298°
2026-04-22 01:29 34.01520 -119.18998 22257 ft 388 kts 310°
2026-04-22 01:29 34.03632 -119.21088 22993 ft 396 kts 315°
2026-04-22 01:30 34.05886 -119.23031 23658 ft 401 kts 317°
2026-04-22 01:30 34.08201 -119.24952 24248 ft 405 kts 317°
2026-04-22 01:30 34.10525 -119.26884 24866 ft 407 kts 317°
2026-04-22 01:30 34.12856 -119.28848 25473 ft 410 kts 316°
2026-04-22 01:31 34.15195 -119.30846 26083 ft 413 kts 316°
2026-04-22 01:31 34.17545 -119.32871 26678 ft 417 kts 316°
2026-04-22 01:31 34.19912 -119.34924 27285 ft 420 kts 315°
2026-04-22 01:31 34.22296 -119.36997 27921 ft 424 kts 315°
2026-04-22 01:32 34.24694 -119.39086 28490 ft 427 kts 315°
2026-04-22 01:32 34.27116 -119.41199 29093 ft 431 kts 315°
2026-04-22 01:32 34.29554 -119.43326 29634 ft 435 kts 315°
2026-04-22 01:32 34.32016 -119.45475 30199 ft 438 kts 315°
2026-04-22 01:33 34.34495 -119.47641 30673 ft 441 kts 315°
2026-04-22 01:33 34.36984 -119.49813 31275 ft 440 kts 315°
2026-04-22 01:33 34.39464 -119.51977 31918 ft 439 kts 315°
2026-04-22 01:33 34.41908 -119.54155 32521 ft 434 kts 313°
2026-04-22 01:34 34.44163 -119.56541 33145 ft 426 kts 308°
2026-04-22 01:34 34.45561 -119.58194 33548 ft 423 kts 307°
2026-04-22 01:34 34.47608 -119.60739 34138 ft 420 kts 306°
2026-04-22 01:34 34.49620 -119.63294 34591 ft 418 kts 306°
2026-04-22 01:35 34.51627 -119.65845 34995 ft 418 kts 306°
2026-04-22 01:35 34.53643 -119.68393 35387 ft 419 kts 306°
2026-04-22 01:35 34.55665 -119.70932 35784 ft 418 kts 306°
2026-04-22 01:35 34.58354 -119.74290 36323 ft 418 kts 306°
2026-04-22 01:36 34.59718 -119.75991 36595 ft 418 kts 307°
2026-04-22 01:36 34.61746 -119.78519 36912 ft 419 kts 306°
2026-04-22 01:36 34.63776 -119.81048 37341 ft 417 kts 306°
2026-04-22 01:36 34.65798 -119.83570 37746 ft 416 kts 307°
2026-04-22 01:37 34.67811 -119.86084 38148 ft 414 kts 307°
2026-04-22 01:37 34.69820 -119.88590 38530 ft 414 kts 307°
2026-04-22 01:37 34.71829 -119.91103 38866 ft 414 kts 306°
2026-04-22 01:37 34.73832 -119.93610 39114 ft 414 kts 307°
2026-04-22 01:38 34.75835 -119.96121 39341 ft 414 kts 307°
2026-04-22 01:38 34.77847 -119.98643 39534 ft 415 kts 307°
2026-04-22 01:38 34.79859 -120.01169 39737 ft 416 kts 307°
2026-04-22 01:38 34.81874 -120.03696 39947 ft 416 kts 307°
2026-04-22 01:39 34.83894 -120.06234 40062 ft 419 kts 307°
2026-04-22 01:39 34.85925 -120.08790 40093 ft 421 kts 307°
2026-04-22 01:39 34.90003 -120.13919 40115 ft 421 kts 307°
2026-04-22 01:40 34.94078 -120.19053 40105 ft 421 kts 307°
2026-04-22 01:40 34.98146 -120.24186 40102 ft 421 kts 307°
2026-04-22 01:41 35.02204 -120.29331 40101 ft 420 kts 307°
2026-04-22 01:41 35.06331 -120.34408 40101 ft 423 kts 309°
2026-04-22 01:42 35.10616 -120.39272 40106 ft 424 kts 310°
2026-04-22 01:42 35.14956 -120.44134 40104 ft 423 kts 310°
2026-04-22 01:43 35.19283 -120.49006 40092 ft 423 kts 310°
2026-04-22 01:43 35.23624 -120.53916 40130 ft 423 kts 310°
2026-04-22 01:44 35.27951 -120.58822 40095 ft 424 kts 310°
2026-04-22 01:44 35.32275 -120.63729 40096 ft 424 kts 310°
2026-04-22 01:45 35.36595 -120.68639 40094 ft 424 kts 310°
2026-04-22 01:45 35.40913 -120.73557 40116 ft 424 kts 310°
2026-04-22 01:46 35.45242 -120.78485 40100 ft 426 kts 311°
2026-04-22 01:46 35.49822 -120.83087 40111 ft 430 kts 315°
2026-04-22 01:47 35.54603 -120.87524 40112 ft 431 kts 315°
2026-04-22 01:47 35.59392 -120.91961 40122 ft 432 kts 315°
2026-04-22 01:48 35.64178 -120.96431 40109 ft 432 kts 315°
2026-04-22 01:48 35.68937 -121.00893 40107 ft 430 kts 315°
2026-04-22 01:49 35.73691 -121.05363 40106 ft 429 kts 315°
2026-04-22 01:49 35.76045 -121.07575 39923 ft 421 kts 315°
2026-04-22 01:49 35.78352 -121.09740 39727 ft 415 kts 315°
2026-04-22 01:50 35.80644 -121.11900 39366 ft 414 kts 315°
2026-04-22 01:50 35.82923 -121.14051 38928 ft 412 kts 314°
2026-04-22 01:50 35.85189 -121.16191 38361 ft 408 kts 314°
2026-04-22 01:50 35.87434 -121.18313 37833 ft 407 kts 314°
2026-04-22 01:51 35.89682 -121.20440 37333 ft 407 kts 314°
2026-04-22 01:51 35.91927 -121.22567 36877 ft 407 kts 314°
2026-04-22 01:51 35.94178 -121.24700 36374 ft 408 kts 314°
2026-04-22 01:51 35.96423 -121.26828 35886 ft 406 kts 314°
2026-04-22 01:52 35.98661 -121.28949 35416 ft 406 kts 314°
2026-04-22 01:52 36.00898 -121.31071 34929 ft 405 kts 314°
2026-04-22 01:52 36.03134 -121.33192 34434 ft 405 kts 314°
2026-04-22 01:52 36.05432 -121.35230 33915 ft 408 kts 316°
2026-04-22 01:53 36.07809 -121.37167 33380 ft 410 kts 318°
2026-04-22 01:53 36.10216 -121.39056 32783 ft 410 kts 318°
2026-04-22 01:53 36.12607 -121.40911 32240 ft 411 kts 318°
2026-04-22 01:53 36.15065 -121.42817 31696 ft 412 kts 318°
2026-04-22 01:54 36.17486 -121.44701 31154 ft 412 kts 318°
2026-04-22 01:54 36.19911 -121.46594 30630 ft 412 kts 318°
2026-04-22 01:54 36.22339 -121.48496 30081 ft 413 kts 318°
2026-04-22 01:54 36.24740 -121.50379 29484 ft 414 kts 318°
2026-04-22 01:55 36.27173 -121.52292 28902 ft 415 kts 318°
2026-04-22 01:55 36.29615 -121.54212 28356 ft 415 kts 318°
2026-04-22 01:55 36.32051 -121.56129 27803 ft 415 kts 318°
2026-04-22 01:55 36.34481 -121.58037 27256 ft 411 kts 318°
2026-04-22 01:56 36.36878 -121.59922 26711 ft 406 kts 318°
2026-04-22 01:56 36.39249 -121.61787 26242 ft 402 kts 318°
2026-04-22 01:56 36.41596 -121.63637 25915 ft 398 kts 318°
2026-04-22 01:56 36.43918 -121.65468 25766 ft 389 kts 318°
2026-04-22 01:57 36.46135 -121.67201 25588 ft 365 kts 317°
2026-04-22 01:57 36.48237 -121.68846 25278 ft 351 kts 317°
2026-04-22 01:57 36.50277 -121.70464 24829 ft 345 kts 316°
2026-04-22 01:57 36.52283 -121.72069 24263 ft 340 kts 316°
2026-04-22 01:58 36.54258 -121.73648 23725 ft 336 kts 316°
2026-04-22 01:58 36.56209 -121.75205 23121 ft 331 kts 316°
2026-04-22 01:58 36.58140 -121.76749 22535 ft 330 kts 316°
2026-04-22 01:58 36.60071 -121.78292 22038 ft 330 kts 317°
2026-04-22 01:59 36.61998 -121.79831 21480 ft 328 kts 317°
2026-04-22 01:59 36.63913 -121.81357 20949 ft 325 kts 318°
2026-04-22 01:59 36.65814 -121.82871 20426 ft 325 kts 318°
2026-04-22 01:59 36.67713 -121.84386 19915 ft 324 kts 319°
2026-04-22 02:00 36.69613 -121.85903 19475 ft 324 kts 319°
2026-04-22 02:00 36.71512 -121.87419 19210 ft 324 kts 319°
2026-04-22 02:00 36.73445 -121.88872 19093 ft 329 kts 326°
2026-04-22 02:00 36.75625 -121.89873 19021 ft 339 kts 334°
2026-04-22 02:01 36.77934 -121.90622 18490 ft 343 kts 339°
2026-04-22 02:01 36.80271 -121.91265 17912 ft 346 kts 340°
2026-04-22 02:01 36.82621 -121.91887 17355 ft 345 kts 341°
2026-04-22 02:01 36.84964 -121.92513 16823 ft 344 kts 341°
2026-04-22 02:02 36.87298 -121.93147 16312 ft 342 kts 341°
2026-04-22 02:02 36.89620 -121.93786 15815 ft 341 kts 341°
2026-04-22 02:02 36.91928 -121.94429 15306 ft 340 kts 341°
2026-04-22 02:02 36.94237 -121.95077 14780 ft 339 kts 341°
2026-04-22 02:03 36.96518 -121.95811 14248 ft 338 kts 339°
2026-04-22 02:03 36.98776 -121.96654 13692 ft 340 kts 338°
2026-04-22 02:03 37.01028 -121.97534 13101 ft 338 kts 338°
2026-04-22 02:03 37.03262 -121.98414 12576 ft 335 kts 338°
2026-04-22 02:04 37.07681 -122.00155 11523 ft 330 kts 339°
2026-04-22 02:04 37.09861 -122.01013 11018 ft 327 kts 339°
2026-04-22 02:04 37.12017 -122.01860 10722 ft 324 kts 339°
2026-04-22 02:05 37.14145 -122.02695 10599 ft 312 kts 338°
2026-04-22 02:05 37.16166 -122.03485 10482 ft 296 kts 339°
2026-04-22 02:05 37.18095 -122.04240 10265 ft 287 kts 338°
2026-04-22 02:05 37.19993 -122.04987 9826 ft 285 kts 338°
2026-04-22 02:06 37.21885 -122.05735 9321 ft 284 kts 339°
2026-04-22 02:06 37.23737 -122.06465 8923 ft 281 kts 339°
2026-04-22 02:06 37.25612 -122.07204 8532 ft 277 kts 339°
2026-04-22 02:06 37.27411 -122.07912 8173 ft 270 kts 338°
2026-04-22 02:07 37.29215 -122.08624 7753 ft 271 kts 337°
2026-04-22 02:07 37.31008 -122.09339 7275 ft 269 kts 338°
2026-04-22 02:07 37.32776 -122.10033 6898 ft 264 kts 338°
2026-04-22 02:07 37.34516 -122.10717 6532 ft 260 kts 339°
2026-04-22 02:08 37.36235 -122.11395 6169 ft 258 kts 338°
2026-04-22 02:08 37.37948 -122.12033 6079 ft 258 kts 340°
2026-04-22 02:08 37.39700 -122.12650 5587 ft 266 kts 339°
2026-04-22 02:08 37.41482 -122.13267 5142 ft 262 kts 341°
2026-04-22 02:09 37.43213 -122.13858 4751 ft 255 kts 341°
2026-04-22 02:09 37.44925 -122.14439 4361 ft 254 kts 341°
2026-04-22 02:09 37.46625 -122.15006 4003 ft 251 kts 340°
2026-04-22 02:09 37.48311 -122.15563 3627 ft 250 kts 340°
2026-04-22 02:10 37.49964 -122.16111 3249 ft 249 kts 342°
2026-04-22 02:10 37.51628 -122.16666 3089 ft 237 kts 340°
2026-04-22 02:10 37.53060 -122.17444 3023 ft 222 kts 322°
2026-04-22 02:10 37.54131 -122.18818 2658 ft 220 kts 301°
2026-04-22 02:11 37.54943 -122.20452 2280 ft 221 kts 298°
2026-04-22 02:11 37.55676 -122.22115 1945 ft 209 kts 294°
2026-04-22 02:11 37.56307 -122.23640 1860 ft 182 kts 293°
2026-04-22 02:11 37.56875 -122.25015 1863 ft 174 kts 293°
2026-04-22 02:12 37.57435 -122.26370 1779 ft 175 kts 294°
2026-04-22 02:12 37.57987 -122.27688 1513 ft 160 kts 294°
2026-04-22 02:12 37.58479 -122.28861 1229 ft 147 kts 293°
2026-04-22 02:12 37.58948 -122.29985 1091 ft 144 kts 294°
2026-04-22 02:13 37.59411 -122.31091 912 ft 141 kts 294°
2026-04-22 02:13 37.59864 -122.32171 686 ft 139 kts 295°
2026-04-22 02:13 37.60303 -122.33226 547 ft 134 kts 293°
2026-04-22 02:13 37.60741 -122.34270 360 ft 136 kts 296°
2026-04-22 02:14 37.61183 -122.35301 153 ft 133 kts 295°
2026-04-22 02:14 37.61612 -122.36327 29 ft 126 kts 294°
2026-04-22 02:14 37.61951 -122.37142 24 ft 84 kts 298°
2026-04-22 02:14 37.62168 -122.37657 27 ft 49 kts 298°
2026-04-22 02:15 37.62291 -122.37949 29 ft 31 kts 298°
2026-04-22 02:15 37.62401 -122.38125 27 ft 18 kts 339°
2026-04-22 02:15 37.62491 -122.38128 26 ft 11 kts
2026-04-22 02:15 37.62542 -122.38174 27 ft 9 kts 302°
2026-04-22 02:16 37.62573 -122.38250 25 ft 10 kts 297°
2026-04-22 02:16 37.62605 -122.38329 27 ft 10 kts 297°
2026-04-22 02:16 37.62635 -122.38401 25 ft 9 kts 298°
2026-04-22 02:16 37.62671 -122.38486 30 ft 13 kts 298°
2026-04-22 02:17 37.62726 -122.38614 26 ft 20 kts 297°
2026-04-22 02:17 37.62788 -122.38766 31 ft 18 kts 297°
2026-04-22 02:17 37.62845 -122.38902 31 ft 17 kts 298°
2026-04-22 02:17 37.62900 -122.39034 31 ft 16 kts 298°
2026-04-22 02:18 37.62953 -122.39156 30 ft 16 kts 301°
2026-04-22 02:18 37.63045 -122.39231 28 ft 16 kts 337°
2026-04-22 02:18 37.63122 -122.39263 28 ft 7 kts
2026-04-22 02:18 37.63158 -122.39219 27 ft 10 kts 62°
2026-04-22 02:19 37.63206 -122.39142 30 ft 9 kts 16°
2026-04-22 02:19 37.63262 -122.39162 27 ft 9 kts 337°
2026-04-22 02:19 37.63308 -122.39178 25 ft 12 kts 356°
2026-04-22 02:19 37.63385 -122.39105 25 ft 17 kts 62°
2026-04-22 02:20 37.63430 -122.38966 24 ft 17 kts 73°
2026-04-22 02:20 37.63489 -122.38831 21 ft 18 kts 40°
2026-04-22 02:20 37.63579 -122.38836 28 ft 12 kts 329°
2026-04-22 02:20 37.63649 -122.38888 27 ft 6 kts 329°
2026-04-22 02:21 37.63664 -122.38895 27 ft 3 kts 350°
2026-04-22 02:21 37.63693 -122.38874 29 ft 7 kts 44°
2026-04-22 02:21 37.63707 -122.38846 28 ft 1 kts 60°
2026-04-22 02:21 37.63713 -122.38830 25 ft 0 kts 62°